| time (UTC) | temp F | wind direction | speed knots | gust knots | rain 1hr in | rain 24hr in | rain mn in | humidity % | barometer mb |
| 20260505222912 | 60 | 76 | 1.7 | 5.2 | 0.00 | 1.57 | 0.00 | 86 | 1008.9 |
| 20260505215911 | 61 | 125 | 1.7 | 6.1 | 0.00 | 1.57 | 0.00 | 85 | 1009.3 |
| 20260505212921 | 61 | 73 | 2.6 | 7.8 | 0.00 | 1.57 | 0.00 | 84 | 1009.8 |
| 20260505205920 | 62 | 146 | 1.7 | 7.0 | 0.00 | 1.57 | 0.00 | 84 | 1010.3 |
| 20260505202928 | 62 | 134 | 0.0 | 3.5 | 0.00 | 1.57 | 0.00 | 83 | 1010.4 |
| 20260505195936 | 62 | 95 | 0.0 | 0.0 | 0.00 | 1.57 | 0.00 | 81 | 1010.0 |
| 20260505192914 | 63 | 40 | 0.0 | 2.6 | 0.00 | 1.57 | 0.00 | 80 | 1009.9 |
| 20260505185927 | 62 | 211 | 0.0 | 0.0 | 0.00 | 1.57 | 0.00 | 78 | 1010.0 |
| 20260505182917 | 63 | 211 | 1.7 | 3.5 | 0.00 | 1.57 | 0.00 | 78 | 1010.4 |
| 20260505175928 | 64 | 225 | 2.6 | 3.5 | 0.00 | 1.57 | 0.00 | 77 | 1010.4 |
| 20260505172918 | 65 | 237 | 2.6 | 4.3 | 0.00 | 1.61 | 0.00 | 75 | 1010.4 |
| 20260505165920 | 66 | 217 | 4.3 | 7.0 | 0.00 | 1.61 | 0.00 | 74 | 1010.5 |
| 20260505162928 | 68 | 234 | 3.5 | 7.0 | 0.00 | 1.61 | 0.00 | 70 | 1010.6 |
| 20260505152935 | 68 | 273 | 3.5 | 6.1 | 0.00 | 1.65 | 0.00 | 72 | 1010.8 |
| 20260505122927 | 67 | 256 | 5.2 | 9.6 | 0.00 | 1.65 | 0.00 | 75 | 1011.5 |
| 20260505115916 | 67 | 207 | 6.1 | 10.4 | 0.00 | 1.65 | 0.00 | 76 | 1011.6 |
| 20260505112934 | 66 | 209 | 3.5 | 7.0 | 0.00 | 1.65 | 0.00 | 78 | 1011.6 |
| 20260505095929 | 64 | 230 | 5.2 | 7.8 | 0.00 | 1.65 | 0.00 | 84 | 1011.8 |
| 20260505092945 | 63 | 236 | 6.1 | 7.8 | 0.00 | 1.65 | 0.00 | 86 | 1011.9 |
| 20260505085915 | 63 | 259 | 5.2 | 10.4 | 0.00 | 1.65 | 0.00 | 90 | 1011.6 |
| 20260505082925 | 62 | 271 | 3.5 | 7.8 | 0.00 | 1.65 | 0.00 | 92 | 1011.3 |
| 20260505075939 | 60 | 270 | 5.2 | 7.8 | 0.00 | 1.65 | 0.00 | 92 | 1011.3 |
| 20260505072929 | 61 | 80 | 2.6 | 7.8 | 0.00 | 1.69 | 0.00 | 92 | 1010.7 |
| 20260505065920 | 61 | 136 | 0.9 | 4.3 | 0.00 | 1.69 | 0.00 | 93 | 1010.9 |
| 20260505062936 | 59 | 86 | 3.5 | 6.1 | 0.00 | 1.85 | 0.00 | 93 | 1010.7 |
| 20260505055926 | 58 | 78 | 1.7 | 6.1 | 0.00 | 1.85 | 0.00 | 92 | 1010.5 |
| 20260505052921 | 58 | 61 | 1.7 | 7.8 | 0.00 | 2.01 | 0.00 | 92 | 1010.5 |
| 20260505035919 | 58 | 76 | 3.5 | 7.8 | 0.00 | 2.17 | 0.00 | 92 | 1009.7 |
| 20260505032957 | 57 | 51 | 2.6 | 6.1 | 0.00 | 2.17 | 0.00 | 92 | 1009.7 |
| 20260505025930 | 57 | 81 | 2.6 | 12.2 | 0.00 | 2.17 | 0.00 | 92 | 1010.0 |
| 20260505022920 | 57 | 127 | 2.6 | 6.1 | 0.51 | 2.17 | 0.43 | 92 | 1010.3 |
| 20260505015931 | 57 | 82 | 2.6 | 7.8 | 0.51 | 2.17 | 0.43 | 92 | 1010.1 |
| 20260505012920 | 57 | 59 | 2.6 | 8.7 | 0.00 | 1.65 | 0.33 | 92 | 1010.1 |
| 20260505005921 | 57 | 111 | 2.6 | 7.8 | 0.00 | 1.65 | 0.33 | 91 | 1010.4 |
| 20260505002915 | 57 | 69 | 5.2 | 13.0 | 0.08 | 1.65 | 0.33 | 91 | 1010.9 |
| 20260504235926 | 57 | 109 | 3.5 | 10.4 | 0.28 | 1.65 | 0.33 | 91 | 1011.1 |
| 20260504232917 | 58 | 75 | 8.7 | 18.2 | 0.35 | 1.57 | 0.31 | 90 | 1011.2 |
| 20260504225914 | 58 | 66 | 7.0 | 19.1 | 0.75 | 1.38 | 0.28 | 89 | 1010.9 |